Location: Burland Observatory
(39.4088°N, 105.4217°W)
Time: 02:11:59
(UTC-07:00)

Vanguard 1 Rocket - Visible Passes

Search period start: 12 December 2019 00:00
Search period end: 22 December 2019 00:00
Orbit: 650 x 4226 km, 34.3° (Epoch: 11 December)

Date Brightness Start Highest point End Pass type
(mag) Time Alt. Az. Time Alt. Az. Time Alt. Az.
12 Dec 10.0 18:38:13 10° SW 18:59:31 43° SSE 19:06:01 32° ESE visible
12 Dec 10.0 21:09:20 10° WSW 21:23:18 47° SW 21:23:18 47° SW visible
13 Dec 10.6 17:25:19 10° SSW 17:45:54 34° SSE 17:58:53 13° E visible
13 Dec 9.6 19:53:58 10° SW 20:15:28 59° SSE 20:16:10 58° SSE visible
13 Dec 10.8 22:27:10 10° W 22:33:28 25° WSW 22:33:28 25° WSW visible
14 Dec 10.0 18:39:19 10° SW 19:02:05 50° SSE 19:09:02 35° ESE visible
14 Dec 10.0 21:11:28 10° WSW 21:26:19 51° SW 21:26:19 51° SW visible
15 Dec 10.6 17:25:49 10° SSW 17:48:17 41° SSE 18:01:53 15° E visible
15 Dec 9.5 19:55:47 10° WSW 20:18:10 65° SSE 20:19:10 64° SSE visible
15 Dec 10.8 22:29:35 10° W 22:36:27 26° W 22:36:27 26° W visible
16 Dec 9.9 18:40:44 10° SW 19:04:35 57° SSE 19:11:59 38° ESE visible
16 Dec 10.0 21:13:43 10° WSW 21:29:16 53° WSW 21:29:16 53° WSW visible
17 Dec 10.5 17:26:46 10° SW 17:50:37 48° SSE 18:04:48 16° E visible
17 Dec 9.5 19:57:47 10° WSW 20:20:50 69° S 20:22:05 68° SSE visible
17 Dec 10.7 22:32:02 10° W 22:39:22 27° W 22:39:22 27° W visible
18 Dec 9.9 18:42:25 10° SW 19:07:07 63° SSE 19:14:53 39° E visible
18 Dec 10.0 21:16:02 10° W 21:32:10 55° WSW 21:32:10 55° WSW visible
19 Dec 10.5 17:28:05 10° SW 17:52:55 55° SSE 18:07:41 17° E visible
19 Dec 9.5 19:59:57 10° WSW 20:23:30 73° S 20:24:58 70° SE visible
19 Dec 10.8 22:34:29 10° W 22:42:15 28° W 22:42:15 28° W visible
20 Dec 9.9 18:44:20 10° WSW 19:09:37 69° SSE 19:17:45 40° E visible
20 Dec 10.0 21:18:24 10° W 21:35:02 55° WSW 21:35:02 55° WSW visible
21 Dec 10.5 17:29:43 10° SW 17:55:13 61° SSE 18:10:32 18° E visible
21 Dec 9.6 20:02:12 10° W 20:26:10 74° S 20:27:49 71° SE visible
21 Dec 10.8 22:36:56 10° W 22:45:05 28° W 22:45:05 28° W visible
